Location: Newark
(45.9456°N, 15.4064°E)
Time: 06:27:39
(UTC+00:00)

SR - Pass Details

Date: 04 February 2020
Orbit: 575 x 881 km, 66.7° (Epoch: 19 February)

Event Time Altitude Azimuth Distance (km) Brightness Sun altitude
Rises 20:52:30 0° 265° (W) 3,470 ? -48.4°
Enters shadow 20:54:55 - 277° (W) 2,763 ? -48.7°
Reaches altitude 10° 20:55:47 10° 283° (WNW) 2,541 - -48.9°
Maximum altitude 20:59:54 19° 327° (NNW) 1,967 - -49.4°
Drops below altitude 10° 21:03:59 10° 12° (NNE) 2,509 - -50.0°
Sets 21:07:12 0° 30° (NNE) 3,411 - -50.5°
